Regional Weather Roundup
Issued by NWS

Home | Current Version | Previous Version | Text Only | Print | Product List | Glossary Off
Versions: 1 2 3 4 5 6 7 8 9 10 11 12 13 14 15 16 17 18 19 20 21 22 23 24 25 26 27 28 29 30 31 32 33 34 35 36 37 38 39 40 41 42 43 44 45 46 47 48 49 50

000
ASUS43 KBIS 271310
RWRND

NORTH DAKOTA REGIONAL WEATHER ROUNDUP
NATIONAL WEATHER SERVICE BISMARCK ND
800 AM CDT WED JUL 27 2016

NOTE: "FAIR" INDICATES FEW OR NO CLOUDS BELOW 12,000 FEET WITH NO
SIGNIFICANT WEATHER AND/OR OBSTRUCTIONS TO VISIBILITY.


NDZ001>003-009>011-017-271400-
NORTHWEST NORTH DAKOTA

CITY           SKY/WX    TMP DP  RH WIND       PRES   REMARKS
WILLISTON      CLOUDY    63  54  72 N6        30.11F
MINOT          SUNNY     64  58  80 CALM      30.11S
MINOT AFB      MOSUNNY   61  57  85 N5        30.11S
$$

NDZ018>021-031>035-040>046-271400-
SOUTHWEST NORTH DAKOTA

CITY           SKY/WX    TMP DP  RH WIND       PRES   REMARKS
BISMARCK       MOSUNNY   65  62  90 CALM      30.10R
DICKINSON      PTSUNNY   58  56  93 CALM      30.11F
GARRISON         N/A     64  62  93 NE3       30.11S
HETTINGER ARPT CLOUDY    62  59  90 NE9       30.14R
$$

NDZ004>008-012>016-024-026-027-054-271400-
NORTHEAST NORTH DAKOTA

CITY           SKY/WX    TMP DP  RH WIND       PRES   REMARKS
GRAND FORKS    MOSUNNY   63  58  83 N9        30.06R
GRND FRKS AFB  SUNNY     63  58  83 N10       30.07R
DEVILS LAKE    MOSUNNY   63  56  78 NE7       30.11R
$$

NDZ022-023-025-028>030-036>039-047>053-271400-
SOUTHEAST NORTH DAKOTA

CITY           SKY/WX    TMP DP  RH WIND       PRES   REMARKS
FARGO          CLOUDY    65  61  87 N12       30.02R
JAMESTOWN      SUNNY     65  61  87 NE8       30.06S
$$




USA.gov is the U.S. government's official web portal to all federal, state and local government web resources and services.